Location: ???????
(55.3754°N, 39.3545°E)
Time: 21:55:08
(UTC+00:00)

Cosmos 1447 Rocket - Pass Details

Date: 14 April 2026
Orbit: 953 x 996 km, 82.9° (Epoch: 13 May)

Event Time Altitude Azimuth Distance (km) Brightness Sun altitude
Rises 19:41:06 0° 348° (NNW) 3,716 8.9 -21.6°
Reaches altitude 10° 19:43:39 10° 349° (N) 2,758 7.9 -21.8°
Maximum altitude 19:50:00 85° 80° (E) 991 4.4 -22.2°
Enters shadow 19:52:11 44° 165° (SSE) 1,326 4.7 -22.3°
